WXM80 ListenWXM80 Stop

You find our weather info also at:

UK Metoffice

WeatherCloud

Weather Underground

Northeastern Weather Network

AWEKAS

Citizen Weather Observer Program (CWOP)

HAMweather, WeatherForYou, PWS Weather


Weather Underground History page Text

Daily Summary for February 22, 2018 Units:  Metric    English   Both
« Previous Day
Next Day »
Daily Weekly Monthly Yearly Custom
  High: Low: Average:
Temperature: 11.7 °C 2.1 °C 5.4 °C
Dew Point: 6.3 °C 1.1 °C 3.3 °C
Humidity: 95 % 66 % 87 %
Wind Speed: 12.9 km/h 0 km/h 6.8 km/h
Wind Gust: 20.4 km/h - -
Wind:- - East
Pressure: 1030.4 hPa 1020.9 hPa -
Precipitation: 0.51 mm    
Historical Graphs
 
 
Tabular Data for February 22, 2018
Time Temperature Dew Point Pressure Wind Wind Speed Wind Gust Humidity Rainfall Rate (Hourly)
00:04 11.3 °C 6.3 °C 1020.9 hPa NNE 10.9 km/h 16.7 km/h 71 % 0 mm
00:09 11.5 °C 6.2 °C 1020.9 hPa North 11.6 km/h 14.8 km/h 70 % 0 mm
00:14 11.6 °C 6.3 °C 1020.9 hPa North 10.9 km/h 16.7 km/h 70 % 0 mm
00:19 11.6 °C 5.9 °C 1021.2 hPa NNE 11.7 km/h 16.1 km/h 68 % 0 mm
00:25 11.7 °C 5.7 °C 1021.2 hPa NNW 10.6 km/h 14.8 km/h 67 % 0 mm
00:30 11.7 °C 5.6 °C 1021.2 hPa North 9.3 km/h 14.8 km/h 66 % 0 mm
00:35 11.7 °C 5.8 °C 1021.2 hPa North 9 km/h 16.7 km/h 67 % 0 mm
00:40 11.7 °C 5.7 °C 1021.6 hPa NNE 9.3 km/h 13 km/h 67 % 0 mm
00:45 11.7 °C 5.9 °C 1021.2 hPa North 9.3 km/h 14.8 km/h 68 % 0 mm
00:50 11.5 °C 5.8 °C 1021.6 hPa NE 10.1 km/h 18.5 km/h 68 % 0 mm
00:55 11.3 °C 5.6 °C 1021.9 hPa North 10.9 km/h 14.8 km/h 68 % 0 mm
01:00 11.1 °C 5.4 °C 1021.9 hPa North 7.6 km/h 13 km/h 68 % 0 mm
01:05 10.8 °C 5.3 °C 1021.9 hPa NNE 7.9 km/h 13 km/h 69 % 0 mm
01:10 10.6 °C 5.3 °C 1021.9 hPa NNE 9 km/h 13 km/h 70 % 0 mm
01:15 10.5 °C 5.4 °C 1021.9 hPa North 9.2 km/h 13 km/h 71 % 0 mm
01:20 10.4 °C 5.4 °C 1021.9 hPa NNW 8.9 km/h 14.8 km/h 71 % 0 mm
01:25 10.5 °C 5.7 °C 1022.2 hPa North 6.6 km/h 9.3 km/h 72 % 0 mm
01:30 10.4 °C 5.6 °C 1022.2 hPa North 10.5 km/h 19.3 km/h 72 % 0 mm
01:35 10.3 °C 5.5 °C 1022.2 hPa NNW 8.9 km/h 13 km/h 72 % 0 mm
01:40 10.3 °C 5.4 °C 1022.6 hPa NW 9.5 km/h 12.9 km/h 72 % 0 mm
01:45 10.2 °C 5.3 °C 1022.6 hPa North 8.5 km/h 18.5 km/h 72 % 0 mm
01:50 10 °C 5.4 °C 1022.6 hPa NW 11.1 km/h 18.5 km/h 73 % 0 mm
01:55 9.9 °C 5.4 °C 1022.6 hPa NNW 10.8 km/h 20.4 km/h 74 % 0 mm
02:00 9.8 °C 5.4 °C 1022.6 hPa NNW 7.2 km/h 14.8 km/h 74 % 0 mm
02:05 9.7 °C 5.5 °C 1022.6 hPa NNW 7.6 km/h 14.8 km/h 75 % 0 mm
02:10 9.7 °C 5.6 °C 1022.6 hPa NNW 6.6 km/h 14.8 km/h 76 % 0 mm
02:15 9.6 °C 5.6 °C 1022.6 hPa North 10.6 km/h 11.1 km/h 76 % 0 mm
02:20 9.4 °C 5.4 °C 1022.6 hPa North 7.9 km/h 18.5 km/h 76 % 0 mm
02:25 9.3 °C 5.5 °C 1022.9 hPa NNW 4.8 km/h 16.1 km/h 77 % 0 mm
02:30 9.2 °C 5.4 °C 1023.2 hPa NNW 7.2 km/h 16.1 km/h 77 % 0 mm
02:36 9.1 °C 5.3 °C 1023.2 hPa NNW 8 km/h 16.1 km/h 77 % 0 mm
02:40 8.9 °C 5.1 °C 1023.2 hPa NNW 8 km/h 12.9 km/h 77 % 0 mm
02:45 8.8 °C 5.2 °C 1023.2 hPa NNW 4.8 km/h 12.9 km/h 78 % 0 mm
02:51 8.7 °C 5.1 °C 1023.2 hPa NNW 3.2 km/h 8 km/h 78 % 0 mm
02:55 8.6 °C 5.1 °C 1023.6 hPa North 8 km/h 12.9 km/h 79 % 0 mm
03:01 8.4 °C 4.9 °C 1023.6 hPa NW 8 km/h 11.3 km/h 79 % 0 mm
03:06 8.3 °C 5.1 °C 1023.6 hPa North 7.7 km/h 11.1 km/h 80 % 0 mm
03:11 8.2 °C 5 °C 1023.6 hPa North 4.8 km/h 12.9 km/h 80 % 0 mm
03:16 8.2 °C 5.1 °C 1023.6 hPa NNE 5.8 km/h 8 km/h 81 % 0 mm
03:21 8.2 °C 5.1 °C 1023.9 hPa North 8.2 km/h 9.3 km/h 81 % 0 mm
03:26 8.1 °C 5.1 °C 1024.3 hPa North 7.2 km/h 14.8 km/h 81 % 0 mm
03:31 8.1 °C 4.9 °C 1023.9 hPa North 4.8 km/h 7.4 km/h 80 % 0 mm
03:36 8.1 °C 4.6 °C 1023.9 hPa NNE 9 km/h 14.8 km/h 79 % 0 mm
03:41 8 °C 4.4 °C 1023.9 hPa North 10.5 km/h 13 km/h 78 % 0 mm
03:46 8 °C 4.4 °C 1024.3 hPa NNE 9.3 km/h 16.7 km/h 78 % 0 mm
03:51 8 °C 4.2 °C 1024.3 hPa NNE 11.1 km/h 14.8 km/h 77 % 0 mm
03:56 7.9 °C 4.2 °C 1024.3 hPa North 12.4 km/h 18.5 km/h 77 % 0 mm
04:02 7.9 °C 3.9 °C 1024.6 hPa NE 4.8 km/h 13 km/h 76 % 0 mm
04:07 7.8 °C 3.9 °C 1024.6 hPa North 10.5 km/h 14.8 km/h 76 % 0 mm
04:12 7.8 °C 3.6 °C 1024.6 hPa NNE 7.9 km/h 14.8 km/h 75 % 0 mm
04:17 7.7 °C 3.5 °C 1024.9 hPa NE 11.1 km/h 16.7 km/h 75 % 0 mm
04:22 7.7 °C 3.5 °C 1024.9 hPa NNE 10.6 km/h 18.5 km/h 75 % 0 mm
04:27 7.7 °C 3.5 °C 1024.9 hPa North 9.5 km/h 18.5 km/h 75 % 0 mm
04:32 7.6 °C 3.4 °C 1024.6 hPa North 11.4 km/h 14.8 km/h 75 % 0 mm
04:37 7.6 °C 3.4 °C 1024.6 hPa NNE 10 km/h 18.5 km/h 75 % 0 mm
04:42 7.5 °C 3.3 °C 1024.9 hPa NNW 6.8 km/h 11.1 km/h 75 % 0 mm
04:47 7.5 °C 3.3 °C 1024.9 hPa NNE 4.8 km/h 9.7 km/h 75 % 0 mm
04:52 7.4 °C 3.3 °C 1024.9 hPa NNE 7.6 km/h 11.1 km/h 75 % 0 mm
04:57 7.4 °C 3.5 °C 1024.9 hPa NNW 5.3 km/h 8 km/h 76 % 0 mm
05:03 7.4 °C 3.4 °C 1025.6 hPa North 4.8 km/h 7.4 km/h 76 % 0 mm
05:08 7.3 °C 3.4 °C 1025.6 hPa NW 3.5 km/h 5.6 km/h 76 % 0 mm
05:13 7.3 °C 3.3 °C 1026 hPa NW 2.6 km/h 5.6 km/h 76 % 0 mm
05:18 7.3 °C 3.3 °C 1025.6 hPa NNE 2.9 km/h 5.6 km/h 76 % 0 mm
05:23 7.2 °C 3.3 °C 1026 hPa North 1.8 km/h 5.6 km/h 76 % 0 mm
05:28 7.2 °C 3.2 °C 1026 hPa NNE 3.1 km/h 5.6 km/h 76 % 0 mm
05:33 7.2 °C 3.4 °C 1026 hPa North 4.8 km/h 5.6 km/h 77 % 0 mm
05:38 7.1 °C 3.3 °C 1026.3 hPa North 4.2 km/h 11.3 km/h 77 % 0 mm
05:43 7.1 °C 3.7 °C 1026.3 hPa NNE 6.3 km/h 14.8 km/h 79 % 0 mm
05:48 7 °C 3.8 °C 1026.3 hPa NNW 4.3 km/h 9.3 km/h 80 % 0 mm
05:53 6.9 °C 3.9 °C 1026.3 hPa North 7.6 km/h 9.3 km/h 81 % 0 mm
05:58 6.8 °C 4 °C 1026 hPa NNE 4.7 km/h 13 km/h 82 % 0 mm
06:03 6.8 °C 4.1 °C 1026 hPa NE 3.5 km/h 7.4 km/h 83 % 0 mm
06:08 6.7 °C 4.1 °C 1026 hPa NNE 1.6 km/h 6.4 km/h 83 % 0 mm
06:13 6.7 °C 4.2 °C 1026 hPa ENE 3.5 km/h 5.6 km/h 84 % 0 mm
06:18 6.6 °C 4.1 °C 1026 hPa ENE 2.6 km/h 6.4 km/h 84 % 0 mm
06:23 6.5 °C 4 °C 1025.6 hPa ENE 4 km/h 7.4 km/h 84 % 0 mm
06:28 6.4 °C 4.1 °C 1025.6 hPa ENE 3.2 km/h 5.6 km/h 85 % 0 mm
06:33 6.3 °C 4 °C 1026 hPa NNE 2.7 km/h 5.6 km/h 85 % 0 mm
06:38 6.3 °C 3.9 °C 1026 hPa NE 1.1 km/h 5.6 km/h 85 % 0 mm
06:43 6.2 °C 4.1 °C 1025.6 hPa NE 2.3 km/h 5.6 km/h 86 % 0 mm
06:49 6.2 °C 4 °C 1026 hPa ENE 3.1 km/h 11.1 km/h 86 % 0 mm
06:54 6.1 °C 3.9 °C 1025.6 hPa ENE 4.3 km/h 5.6 km/h 86 % 0 mm
06:59 6.1 °C 4.1 °C 1025.3 hPa East 5.1 km/h 8 km/h 87 % 0 mm
07:04 6.1 °C 4.1 °C 1025.6 hPa ENE 4 km/h 7.4 km/h 87 % 0 mm
07:09 6.1 °C 4.2 °C 1026.3 hPa ENE 3.9 km/h 5.6 km/h 88 % 0 mm
07:14 6.1 °C 4.2 °C 1026.3 hPa NE 2.6 km/h 5.6 km/h 88 % 0 mm
07:19 6 °C 4.2 °C 1026.3 hPa ENE 2.4 km/h 5.6 km/h 88 % 0 mm
07:24 6 °C 4.2 °C 1026.3 hPa ENE 3.1 km/h 5.6 km/h 88 % 0 mm
07:29 6 °C 4.2 °C 1026 hPa ENE 5.3 km/h 7.4 km/h 88 % 0 mm
07:34 5.9 °C 4.1 °C 1026 hPa ENE 3.1 km/h 5.6 km/h 88 % 0 mm
07:39 5.9 °C 4.1 °C 1026.3 hPa NE 3.2 km/h 5.6 km/h 88 % 0 mm
07:44 5.9 °C 4.2 °C 1026.3 hPa NE 2.3 km/h 3.7 km/h 89 % 0 mm
07:49 5.8 °C 4.2 °C 1026.3 hPa ENE 1 km/h 3.7 km/h 89 % 0 mm
07:54 5.8 °C 4.2 °C 1026.3 hPa ENE 1.6 km/h 5.6 km/h 89 % 0 mm
07:59 5.8 °C 4.2 °C 1026.3 hPa ENE 1.3 km/h 5.6 km/h 89 % 0 mm
08:05 5.8 °C 4.1 °C 1026.3 hPa NNE 1.9 km/h 7.4 km/h 89 % 0 mm
08:10 5.8 °C 4.1 °C 1026.3 hPa NE 4.8 km/h 5.6 km/h 89 % 0 mm
08:15 5.7 °C 4.1 °C 1026.3 hPa ENE 2.4 km/h 6.4 km/h 89 % 0 mm
08:20 5.7 °C 4.2 °C 1027 hPa ENE 1.1 km/h 3.7 km/h 90 % 0 mm
08:25 5.7 °C 4.2 °C 1027.3 hPa Calm     90 % 0 mm
08:30 5.7 °C 4.2 °C 1027 hPa NE 2.3 km/h 5.6 km/h 90 % 0 mm
08:35 5.6 °C 4.3 °C 1027.3 hPa Calm     91 % 0 mm
08:40 5.6 °C 4.3 °C 1027 hPa ENE 3.2 km/h 5.6 km/h 91 % 0 mm
08:45 5.6 °C 4.3 °C 1027 hPa ENE 1.8 km/h 3.7 km/h 91 % 0 mm
08:50 5.6 °C 4.4 °C 1027 hPa ENE 4.2 km/h 7.4 km/h 92 % 0 mm
08:55 5.6 °C 4.4 °C 1027 hPa ENE 4.2 km/h 6.4 km/h 92 % 0 mm
09:00 5.6 °C 4.3 °C 1027 hPa ENE 4 km/h 6.4 km/h 92 % 0 mm
09:05 5.6 °C 4.3 °C 1027 hPa ENE 4.5 km/h 5.6 km/h 92 % 0 mm
09:10 5.5 °C 4.3 °C 1027 hPa ENE 3.4 km/h 5.6 km/h 92 % 0 mm
09:15 5.5 °C 4.4 °C 1027 hPa East 6.6 km/h 9.3 km/h 93 % 0 mm
09:21 5.5 °C 4.4 °C 1027.3 hPa Calm   4.8 km/h 93 % 0 mm
09:26 5.4 °C 4.4 °C 1027 hPa East 4.8 km/h 8 km/h 93 % 0 mm
09:31 5.4 °C 4.3 °C 1027.3 hPa ENE 2.1 km/h 9.3 km/h 93 % 0 mm
09:36 5.3 °C 4.1 °C 1027 hPa ENE 1.6 km/h 8 km/h 92 % 0 mm
09:41 5.3 °C 4.1 °C 1027.7 hPa Calm   3.2 km/h 92 % 0 mm
09:46 5.3 °C 4.1 °C 1027.7 hPa NE 4.8 km/h 16.1 km/h 92 % 0 mm
09:51 5.3 °C 3.9 °C 1027.3 hPa ENE 4.8 km/h 12.9 km/h 91 % 0 mm
09:56 5.4 °C 4 °C 1027.7 hPa ENE 3.2 km/h 4.8 km/h 91 % 0 mm
10:01 5.4 °C 3.9 °C 1028 hPa ENE 4.7 km/h 6.4 km/h 90 % 0 mm
10:06 5.3 °C 3.8 °C 1027.7 hPa ENE 4.8 km/h 11.3 km/h 90 % 0 mm
10:11 5.4 °C 3.9 °C 1028 hPa ENE 8 km/h 11.3 km/h 90 % 0 mm
10:16 5.3 °C 3.8 °C 1028.3 hPa ENE 4.8 km/h 11.3 km/h 90 % 0 mm
10:21 5.3 °C 3.6 °C 1028.7 hPa ENE 3.2 km/h 6.4 km/h 89 % 0 mm
10:26 5.3 °C 3.6 °C 1028.7 hPa ENE 4.8 km/h 8 km/h 89 % 0 mm
10:31 5.2 °C 3.6 °C 1028.7 hPa ENE 4.8 km/h 8 km/h 89 % 0 mm
10:36 5.3 °C 3.6 °C 1028.7 hPa ENE 4.3 km/h 7.4 km/h 89 % 0 mm
10:41 5.3 °C 3.6 °C 1028.7 hPa ENE 1.6 km/h 8 km/h 89 % 0 mm
10:46 5.3 °C 3.8 °C 1028 hPa ENE 8 km/h 11.3 km/h 90 % 0 mm
10:51 5.5 °C 3.8 °C 1028 hPa ENE 8 km/h 12.9 km/h 89 % 0 mm
10:56 5.7 °C 4 °C 1028 hPa ENE 8 km/h 12.9 km/h 89 % 0 mm
11:01 5.8 °C 4.2 °C 1028 hPa East 5.6 km/h 11.1 km/h 89 % 0 mm
11:06 6 °C 4.2 °C 1027.7 hPa East 7.4 km/h 9.7 km/h 88 % 0 mm
11:11 6.1 °C 4.2 °C 1027.3 hPa ENE 9 km/h 11.1 km/h 88 % 0 mm
11:16 6.2 °C 4.3 °C 1027.7 hPa East 7.1 km/h 11.1 km/h 88 % 0 mm
11:21 6.2 °C 4.3 °C 1027.7 hPa ENE 5 km/h 8 km/h 88 % 0 mm
11:26 6.1 °C 4.3 °C 1027.7 hPa ENE 5.3 km/h 8 km/h 88 % 0 mm
11:31 6 °C 4.2 °C 1027.7 hPa ENE 5 km/h 6.4 km/h 88 % 0 mm
11:36 5.9 °C 4.1 °C 1027.3 hPa East 5.6 km/h 11.3 km/h 88 % 0 mm
11:41 5.8 °C 4.2 °C 1027.3 hPa ENE 5.5 km/h 11.1 km/h 89 % 0 mm
11:46 5.8 °C 4.2 °C 1027.3 hPa ENE 4.8 km/h 11.1 km/h 89 % 0 mm
11:51 5.8 °C 4.2 °C 1027 hPa ENE 8.2 km/h 9.3 km/h 89 % 0 mm
11:56 5.8 °C 3.9 °C 1027 hPa NE 5.3 km/h 11.1 km/h 88 % 0 mm
12:01 5.8 °C 3.8 °C 1027 hPa ENE 4 km/h 7.4 km/h 87 % 0 mm
12:07 5.8 °C 3.9 °C 1027 hPa East 7.6 km/h 11.3 km/h 88 % 0 mm
12:12 5.8 °C 4 °C 1026.6 hPa ENE 6 km/h 7.4 km/h 88 % 0 mm
12:17 5.8 °C 4 °C 1026.6 hPa ENE 7.2 km/h 11.1 km/h 88 % 0 mm
12:22 5.9 °C 4.1 °C 1026.3 hPa East 7.4 km/h 11.3 km/h 88 % 0 mm
12:27 5.9 °C 3.9 °C 1026.3 hPa East 7.7 km/h 11.3 km/h 87 % 0 mm
12:32 5.8 °C 3.5 °C 1026.6 hPa ENE 5.8 km/h 13 km/h 85 % 0 mm
12:37 5.8 °C 3.6 °C 1026.6 hPa East 6.3 km/h 9.3 km/h 86 % 0 mm
12:42 5.7 °C 3.6 °C 1026 hPa ENE 6.1 km/h 11.3 km/h 86 % 0 mm
12:47 5.7 °C 3.7 °C 1026 hPa East 8.7 km/h 11.3 km/h 87 % 0 mm
12:52 5.7 °C 3.7 °C 1026 hPa East 9.8 km/h 14.8 km/h 87 % 0 mm
12:57 5.7 °C 3.5 °C 1025.6 hPa ENE 8.5 km/h 13 km/h 86 % 0 mm
13:02 5.6 °C 3.4 °C 1026 hPa East 7.2 km/h 11.1 km/h 86 % 0 mm
13:07 5.6 °C 3.4 °C 1025.6 hPa East 9 km/h 14.8 km/h 86 % 0 mm
13:12 5.4 °C 3.4 °C 1026.3 hPa ENE 5.5 km/h 11.3 km/h 87 % 0 mm
13:17 5.3 °C 3.3 °C 1026 hPa East 6.1 km/h 8 km/h 87 % 0 mm
13:22 5.3 °C 3.5 °C 1026 hPa ENE 6.6 km/h 7.4 km/h 88 % 0 mm
13:27 5.3 °C 3.4 °C 1026 hPa ENE 6 km/h 14.8 km/h 88 % 0 mm
13:32 5.2 °C 3.5 °C 1026 hPa NE 4.5 km/h 5.6 km/h 89 % 0 mm
13:37 5.1 °C 3.4 °C 1026.3 hPa NE 1.8 km/h 5.6 km/h 89 % 0 mm
13:43 5.1 °C 3.4 °C 1026.3 hPa NE 4.5 km/h 7.4 km/h 89 % 0 mm
13:48 5.1 °C 3.6 °C 1026 hPa NE 3.9 km/h 7.4 km/h 90 % 0 mm
13:53 5.1 °C 3.6 °C 1026.3 hPa NNE 3.9 km/h 7.4 km/h 90 % 0 mm
13:58 5.1 °C 3.6 °C 1026.3 hPa NNE 5.1 km/h 9.3 km/h 90 % 0 mm
14:03 5.1 °C 3.6 °C 1026.3 hPa NNE 3.1 km/h 5.6 km/h 90 % 0 mm
14:08 5.1 °C 3.6 °C 1026.3 hPa NNE 4.2 km/h 6.4 km/h 90 % 0 mm
14:13 5 °C 3.5 °C 1026.3 hPa NNE 4.3 km/h 7.4 km/h 90 % 0 mm
14:18 5.1 °C 3.6 °C 1026.3 hPa NE 3.4 km/h 7.4 km/h 90 % 0 mm
14:23 5 °C 3.7 °C 1026 hPa NE 6 km/h 9.3 km/h 91 % 0 mm
14:28 5 °C 3.7 °C 1026.3 hPa NNE 9.5 km/h 13 km/h 91 % 0 mm
14:33 4.9 °C 3.4 °C 1026.3 hPa NE 6.8 km/h 11.1 km/h 90 % 0 mm
14:38 4.9 °C 3.4 °C 1026 hPa ENE 4.7 km/h 7.4 km/h 90 % 0 mm
14:43 4.8 °C 3.3 °C 1026.3 hPa NNE 4.5 km/h 14.8 km/h 90 % 0 mm
14:48 4.8 °C 3.3 °C 1026 hPa ENE 9.7 km/h 14.8 km/h 90 % 0 mm
14:53 4.8 °C 3.3 °C 1026.3 hPa ENE 5.6 km/h 11.1 km/h 90 % 0 mm
14:58 4.7 °C 3.2 °C 1026.3 hPa ENE 6.4 km/h 14.5 km/h 90 % 0 mm
15:03 4.7 °C 3.2 °C 1026.6 hPa NNE 3.4 km/h 5.6 km/h 90 % 0 mm
15:08 4.7 °C 3.2 °C 1027 hPa NE 2.6 km/h 5.6 km/h 90 % 0 mm
15:14 4.7 °C 3.3 °C 1027.3 hPa North 2.4 km/h 6.4 km/h 91 % 0 mm
15:19 4.7 °C 3.3 °C 1027 hPa NE 3.1 km/h 5.6 km/h 91 % 0 mm
15:24 4.6 °C 3.3 °C 1027 hPa NE 2.6 km/h 7.4 km/h 91 % 0 mm
15:29 4.5 °C 3.2 °C 1027 hPa NE 3.9 km/h 9.3 km/h 91 % 0 mm
15:34 4.4 °C 3.1 °C 1027 hPa ENE 6.4 km/h 11.3 km/h 91 % 0 mm
15:39 4.4 °C 2.9 °C 1026.6 hPa NE 7.4 km/h 13 km/h 90 % 0 mm
15:44 4.3 °C 2.8 °C 1027 hPa NE 7.4 km/h 13 km/h 90 % 0 mm
15:49 4.3 °C 2.8 °C 1027 hPa NE 3.4 km/h 11.1 km/h 90 % 0 mm
15:54 4.3 °C 2.8 °C 1027.3 hPa NNE 4.8 km/h 7.4 km/h 90 % 0 mm
15:59 4.3 °C 2.8 °C 1028 hPa NNE 6.6 km/h 14.8 km/h 90 % 0 mm
16:04 4.2 °C 2.7 °C 1027.7 hPa NNE 9 km/h 14.8 km/h 90 % 0 mm
16:09 4.1 °C 2.4 °C 1027.3 hPa ENE 5.3 km/h 7.4 km/h 89 % 0 mm
16:14 4 °C 2.2 °C 1027.3 hPa NE 6.8 km/h 8 km/h 88 % 0 mm
16:19 3.9 °C 2.3 °C 1027.7 hPa NNE 10.8 km/h 16.1 km/h 89 % 0 mm
16:25 3.8 °C 2.2 °C 1027.7 hPa NNE 10.3 km/h 18.5 km/h 89 % 0 mm
16:30 3.8 °C 2.3 °C 1028 hPa NNE 11.4 km/h 16.7 km/h 90 % 0 mm
16:35 3.7 °C 2.2 °C 1028 hPa NNE 10.6 km/h 18.5 km/h 90 % 0 mm
16:40 3.6 °C 2.2 °C 1028 hPa NE 11.7 km/h 18.5 km/h 91 % 0 mm
16:45 3.4 °C 2.1 °C 1028 hPa NNE 8.4 km/h 13 km/h 91 % 0 mm
16:50 3.4 °C 2.2 °C 1028.3 hPa NNE 9.8 km/h 16.7 km/h 92 % 0.25 mm
16:55 3.3 °C 2.1 °C 1028.7 hPa NNE 11.1 km/h 18.5 km/h 92 % 0.25 mm
17:00 3.2 °C 2.1 °C 1028.7 hPa NNE 5.3 km/h 7.4 km/h 92 % 0.25 mm
17:05 3.2 °C 2 °C 1028.7 hPa NNE 6.4 km/h 9.7 km/h 92 % 0.25 mm
17:10 3.2 °C 2.2 °C 1028.7 hPa NE 6 km/h 11.1 km/h 93 % 0.25 mm
17:15 3.2 °C 2.2 °C 1029 hPa NNE 5.5 km/h 11.1 km/h 93 % 0.25 mm
17:20 3.1 °C 2.1 °C 1029 hPa NE 4.7 km/h 11.1 km/h 93 % 0.25 mm
17:25 3.1 °C 2.1 °C 1029 hPa ENE 5.8 km/h 13 km/h 93 % 0.25 mm
17:30 3.1 °C 2.1 °C 1029 hPa NE 4 km/h 7.4 km/h 93 % 0.25 mm
17:35 3.1 °C 2.2 °C 1029.3 hPa ENE 2.1 km/h 5.6 km/h 94 % 0.51 mm
17:40 3.1 °C 2.2 °C 1029.3 hPa NNE 3.4 km/h 5.6 km/h 94 % 0.51 mm
17:45 3.1 °C 2.2 °C 1029.7 hPa NNE 10.5 km/h 12.9 km/h 94 % 0.51 mm
17:50 3 °C 2.1 °C 1029.7 hPa NNE 10.5 km/h 13 km/h 94 % 0.25 mm
17:56 3 °C 2.1 °C 1029.7 hPa NNE 9.7 km/h 14.5 km/h 94 % 0 mm
18:01 2.9 °C 2.1 °C 1029.7 hPa NNE 11.9 km/h 16.7 km/h 94 % 0.25 mm
18:06 2.9 °C 2.1 °C 1029.7 hPa NNE 9.7 km/h 19.3 km/h 94 % 0 mm
18:11 2.9 °C 2 °C 1029.3 hPa NNE 11.3 km/h 16.1 km/h 94 % 0 mm
18:16 2.8 °C 2.1 °C 1029.3 hPa NNE 4.8 km/h 19.3 km/h 95 % 0 mm
18:21 2.8 °C 1.9 °C 1029.3 hPa NE 4.3 km/h 13 km/h 94 % 0.25 mm
18:26 2.8 °C 1.9 °C 1029.3 hPa NE 9.7 km/h 16.1 km/h 94 % 0 mm
18:31 2.8 °C 1.9 °C 1029 hPa NE 8 km/h 16.1 km/h 94 % 0 mm
18:36 2.7 °C 1.8 °C 1029 hPa NNE 6.9 km/h 13 km/h 94 % 0 mm
18:41 2.6 °C 1.9 °C 1029 hPa NE 6 km/h 11.1 km/h 95 % 0 mm
18:46 2.5 °C 1.8 °C 1029 hPa NE 8 km/h 14.5 km/h 95 % 0 mm
18:51 2.4 °C 1.6 °C 1029 hPa NE 8 km/h 11.3 km/h 94 % 0 mm
18:56 2.4 °C 1.5 °C 1029 hPa NE 4.8 km/h 19.3 km/h 94 % 0 mm
19:01 2.4 °C 1.5 °C 1029 hPa ENE 7.1 km/h 8 km/h 94 % 0 mm
19:06 2.3 °C 1.4 °C 1029 hPa NE 8 km/h 16.1 km/h 94 % 0 mm
19:11 2.3 °C 1.4 °C 1028.7 hPa NE 11.3 km/h 16.1 km/h 94 % 0 mm
19:16 2.2 °C 1.3 °C 1028.7 hPa ENE 11.3 km/h 19.3 km/h 94 % 0 mm
19:21 2.2 °C 1.3 °C 1028.7 hPa ENE 11.3 km/h 14.5 km/h 94 % 0 mm
19:26 2.2 °C 1.3 °C 1028.3 hPa ENE 8 km/h 16.1 km/h 94 % 0 mm
19:31 2.2 °C 1.3 °C 1028.3 hPa ENE 9.7 km/h 16.1 km/h 94 % 0 mm
19:36 2.2 °C 1.3 °C 1028.3 hPa ENE 11.3 km/h 19.3 km/h 94 % 0 mm
19:41 2.1 °C 1.3 °C 1028.7 hPa ENE 12.9 km/h 19.3 km/h 94 % 0 mm
19:46 2.1 °C 1.2 °C 1028.7 hPa ENE 8 km/h 19.3 km/h 94 % 0 mm
19:51 2.1 °C 1.2 °C 1028.7 hPa ENE 11.3 km/h 16.1 km/h 94 % 0 mm
19:56 2.2 °C 1.3 °C 1028.7 hPa East 7.6 km/h 13 km/h 94 % 0 mm
20:01 2.2 °C 1.3 °C 1028.7 hPa ENE 11.6 km/h 14.8 km/h 94 % 0 mm
20:06 2.2 °C 1.3 °C 1028.7 hPa ENE 10.5 km/h 13 km/h 94 % 0 mm
20:11 2.2 °C 1.3 °C 1028.7 hPa ENE 9.5 km/h 14.8 km/h 94 % 0 mm
20:16 2.2 °C 1.3 °C 1028.7 hPa East 12.6 km/h 18.5 km/h 94 % 0 mm
20:21 2.2 °C 1.3 °C 1028.7 hPa ENE 11.9 km/h 16.7 km/h 94 % 0 mm
20:26 2.1 °C 1.2 °C 1028.7 hPa ENE 8.5 km/h 16.1 km/h 94 % 0 mm
20:31 2.1 °C 1.1 °C 1028.7 hPa ENE 11.4 km/h 13 km/h 93 % 0 mm
20:36 2.2 °C 1.2 °C 1029 hPa ENE 10.3 km/h 18.5 km/h 93 % 0 mm
20:41 2.2 °C 1.2 °C 1029 hPa ENE 10.6 km/h 14.5 km/h 93 % 0 mm
20:46 2.2 °C 1.2 °C 1028.7 hPa NE 10.1 km/h 18.5 km/h 93 % 0 mm
20:51 2.2 °C 1.2 °C 1029 hPa NE 8.2 km/h 13 km/h 93 % 0 mm
20:56 2.2 °C 1.2 °C 1029 hPa ENE 11.6 km/h 18.5 km/h 93 % 0 mm
21:01 2.2 °C 1.2 °C 1029 hPa NNE 9.3 km/h 14.8 km/h 93 % 0 mm
21:06 2.2 °C 1.2 °C 1029.3 hPa ENE 4 km/h 9.3 km/h 93 % 0 mm
21:11 2.2 °C 1.2 °C 1029.3 hPa ENE 7.9 km/h 13 km/h 93 % 0 mm
21:16 2.2 °C 1.2 °C 1029.3 hPa ENE 9.2 km/h 16.7 km/h 93 % 0 mm
21:21 2.2 °C 1.2 °C 1029.3 hPa NE 6 km/h 11.1 km/h 93 % 0 mm
21:26 2.2 °C 1.2 °C 1029.3 hPa ENE 9.2 km/h 11.3 km/h 93 % 0 mm
21:32 2.2 °C 1.2 °C 1029.3 hPa ENE 7.9 km/h 12.9 km/h 93 % 0 mm
21:37 2.2 °C 1.2 °C 1029 hPa ENE 5.6 km/h 13 km/h 93 % 0 mm
21:42 2.3 °C 1.3 °C 1029 hPa ENE 7.1 km/h 13 km/h 93 % 0 mm
21:47 2.3 °C 1.3 °C 1029 hPa ENE 8.2 km/h 14.8 km/h 93 % 0 mm
21:52 2.3 °C 1.3 °C 1029 hPa ENE 9.2 km/h 13 km/h 93 % 0 mm
21:57 2.3 °C 1.3 °C 1029.3 hPa ENE 8.9 km/h 16.7 km/h 93 % 0 mm
22:02 2.3 °C 1.3 °C 1029 hPa ENE 7.4 km/h 11.3 km/h 93 % 0 mm
22:07 2.3 °C 1.4 °C 1029.3 hPa ENE 6.9 km/h 13 km/h 94 % 0 mm
22:12 2.4 °C 1.4 °C 1029.3 hPa East 8.4 km/h 13 km/h 93 % 0 mm
22:17 2.4 °C 1.4 °C 1029 hPa East 8.7 km/h 16.7 km/h 93 % 0 mm
22:22 2.4 °C 1.4 °C 1029 hPa ENE 8 km/h 16.7 km/h 93 % 0 mm
22:27 2.4 °C 1.4 °C 1029.3 hPa ENE 12.9 km/h 16.7 km/h 93 % 0 mm
22:32 2.4 °C 1.4 °C 1029.7 hPa NE 7.1 km/h 13 km/h 93 % 0 mm
22:37 2.4 °C 1.4 °C 1030 hPa ENE 8.2 km/h 11.3 km/h 93 % 0 mm
22:42 2.4 °C 1.4 °C 1030 hPa NE 6 km/h 8 km/h 93 % 0 mm
22:47 2.4 °C 1.4 °C 1030.4 hPa ENE 7.2 km/h 16.7 km/h 93 % 0 mm
22:52 2.4 °C 1.4 °C 1030.4 hPa NE 7.4 km/h 14.5 km/h 93 % 0 mm
22:57 2.4 °C 1.4 °C 1030 hPa ENE 7.1 km/h 13 km/h 93 % 0 mm
23:03 2.4 °C 1.4 °C 1030 hPa NE 7.7 km/h 14.8 km/h 93 % 0 mm
23:08 2.4 °C 1.4 °C 1029.7 hPa NE 6.8 km/h 8 km/h 93 % 0 mm
23:13 2.4 °C 1.4 °C 1030 hPa ENE 6.8 km/h 16.7 km/h 93 % 0 mm
23:18 2.4 °C 1.4 °C 1029.7 hPa NE 8.7 km/h 18.5 km/h 93 % 0 mm
23:23 2.4 °C 1.4 °C 1029.3 hPa ENE 10.9 km/h 18.5 km/h 93 % 0 mm
23:28 2.4 °C 1.4 °C 1029.3 hPa NE 10.5 km/h 16.7 km/h 93 % 0 mm
23:33 2.4 °C 1.4 °C 1029.7 hPa ENE 11.3 km/h 16.7 km/h 93 % 0 mm
23:38 2.4 °C 1.4 °C 1030 hPa ENE 7.1 km/h 13 km/h 93 % 0 mm
23:43 2.4 °C 1.4 °C 1029.7 hPa NE 7.9 km/h 13 km/h 93 % 0 mm
23:48 2.3 °C 1.3 °C 1029.7 hPa ENE 7.4 km/h 13 km/h 93 % 0 mm
23:53 2.3 °C 1.3 °C 1030 hPa ENE 8.9 km/h 18.5 km/h 93 % 0 mm
23:58 2.3 °C 1.3 °C 1029.7 hPa NE 5.1 km/h 12.9 km/h 93 % 0 mm
Crab Meadow Weather
Compliments of Weather Underground - 3 mb

Script developed by  Jim McMurry - jmcmurry@mwt.net Adapted for the template by  Wim van der Kuil - Leuven-Template.eu

Extremes: Currently the driest state is Nevada with an annual rainfall of only nine inches.